Weather History for Rock Springs, WY

Change the Weather History Date:

Sunday, June 2, 2013

  Actual Average Record
Temperature  
Mean Temperature 64 °F 56 °F  
Max Temperature 82 °F 70 °F 87 °F (2006)
Min Temperature 46 °F 42 °F 26 °F (1951)
Degree Days  
Heating Degree Days 1 9  
Month to date heating degree days 14 19  
Since 1 June heating degree days 14 19  
Since 1 July heating degree days 7598 7994  
Cooling Degree Days 0 0  
Month to date cooling degree days 0 0  
Year to date cooling degree days 1 1  
Since 1 June cooling degree days 0 0  
Growing Degree Days 14 (Base 50)    
Moisture  
Dew Point 22 °F    
Average Humidity 26    
Maximum Humidity 42    
Minimum Humidity 9    
Precipitation  
Precipitation 0.00 in 0.04 in 0.34 in (1993)
Month to date precipitation 0.00 0.07  
Year to date precipitation 0.56 3.80  
Sea Level Pressure  
Sea Level Pressure 29.78 in    
Wind  
Wind Speed 10 mph (SSW)    
Max Wind Speed 33 mph    
Max Gust Speed 46 mph    
Visibility 10 miles    
Events      
T = Trace of Precipitation, MM = Missing Value Source: NWS Daily Summary

Daily Weather History Graph

Daily Weather History Graph

Search for Another Location

Airport:

Trip Planner

Search our weather history database for the weather conditions in past years. The results will help you decide how hot, cold, wet, or windy it might be!

Date:

Astronomy

Jun. 02, 2013 Rise Set
Actual Time 5:43 AM MDT 8:45 PM MDT
Civil Twilight 5:10 AM MDT 9:18 PM MDT
Nautical Twilight 4:28 AM MDT 10:01 PM MDT
Astronomical Twilight 3:38 AM MDT 10:51 PM MDT
Moon 2:16 AM MDT (6/2) 3:15 PM MDT (6/2)
Length of Visible Light 16h 07m
Length of Day
15h 01m
Waning Crescent, 30% of the Moon is Illuminated
Jun 2
Waning Crescent
Jun 8
New
Jun 16
First Quarter
Jun 23
Full
Jun 29
Last Quarter

Hourly Weather History & Observations

Time (MDT) Temp. Dew Point Humidity Pressure Visibility Wind Dir Wind Speed Gust Speed Precip Events Conditions
12:54 AM 52.0 °F 24.1 °F 34% 29.98 in 10.0 mi SSE 10.4 mph - N/A   Clear
1:54 AM 52.0 °F 25.0 °F 35% 29.97 in 10.0 mi South 6.9 mph - N/A   Clear
2:54 AM 51.1 °F 24.1 °F 35% 29.95 in 10.0 mi Calm Calm - N/A   Clear
3:54 AM 51.1 °F 24.1 °F 35% 29.93 in 10.0 mi Calm Calm - N/A   Clear
4:54 AM 46.9 °F 24.1 °F 41% 29.93 in 10.0 mi SSE 4.6 mph - N/A   Clear
5:54 AM 48.0 °F 24.1 °F 39% 29.92 in 10.0 mi SSE 8.1 mph - N/A   Clear
6:54 AM 50.0 °F 25.0 °F 38% 29.92 in 10.0 mi South 4.6 mph - N/A   Clear
7:54 AM 53.1 °F 25.0 °F 34% 29.91 in 10.0 mi SSE 5.8 mph - N/A   Clear
8:54 AM 57.9 °F 25.0 °F 28% 29.90 in 10.0 mi Calm Calm - N/A   Clear
9:54 AM 64.0 °F 26.1 °F 24% 29.87 in 10.0 mi Calm Calm - N/A   Clear
10:54 AM 68.0 °F 23.0 °F 18% 29.85 in 10.0 mi Calm Calm - N/A   Clear
11:54 AM 71.1 °F 21.0 °F 15% 29.82 in 10.0 mi Calm Calm - N/A   Clear
12:54 PM 75.0 °F 21.0 °F 13% 29.77 in 10.0 mi Variable 5.8 mph - N/A   Clear
1:54 PM 78.1 °F 19.9 °F 11% 29.73 in 10.0 mi SW 11.5 mph 23.0 mph N/A   Clear
2:54 PM 81.0 °F 19.9 °F 10% 29.69 in 10.0 mi WSW 17.3 mph 24.2 mph N/A   Partly Cloudy
3:54 PM 77.0 °F 21.0 °F 12% 29.68 in 10.0 mi West 11.5 mph 18.4 mph N/A   Scattered Clouds
4:54 PM 77.0 °F 19.9 °F 12% 29.67 in 10.0 mi SW 15.0 mph 24.2 mph N/A   Partly Cloudy
5:54 PM 80.1 °F 18.0 °F 10% 29.64 in 10.0 mi West 24.2 mph 35.7 mph N/A   Clear
6:54 PM 79.0 °F 18.0 °F 10% 29.62 in 10.0 mi WSW 17.3 mph 31.1 mph N/A   Clear
7:54 PM 75.9 °F 18.0 °F 11% 29.63 in 10.0 mi West 19.6 mph 25.3 mph N/A   Clear
8:54 PM 70.0 °F 18.0 °F 14% 29.63 in 10.0 mi SW 11.5 mph - N/A   Clear
9:54 PM 66.9 °F 21.0 °F 17% 29.62 in 10.0 mi SW 10.4 mph - N/A   Clear
10:54 PM 64.0 °F 21.9 °F 20% 29.60 in 10.0 mi SSW 12.7 mph - N/A   Clear
11:54 PM 66.0 °F 19.0 °F 17% 29.55 in 10.0 mi SSW 19.6 mph - N/A   Clear